Time,TemperatureF,DewpointF,PressureIn,WindDirection,WindDirectionDegrees,WindSpeedMPH,WindSpeedGustMPH,Humidity,HourlyPrecipIn,Conditions,Clouds,dailyrainin,SoftwareType,DateUTC
2013-09-27 00:01:00,52.3,50.0,30.15,NNW,334,0.0,0.0,92,0.00,,,0.00,WUHU216DAVISVP2,2013-09-27 04:01:00,
2013-09-27 00:06:00,52.1,50.1,30.15,NNW,334,0.0,0.0,93,0.00,,,0.00,WUHU216DAVISVP2,2013-09-27 04:06:00,
2013-09-27 00:11:00,51.8,49.8,30.15,NNW,334,0.0,0.0,93,0.00,,,0.00,WUHU216DAVISVP2,2013-09-27 04:11:00,
2013-09-27 00:16:00,51.4,49.7,30.15,NNW,335,0.0,0.0,94,0.00,,,0.00,WUHU216DAVISVP2,2013-09-27 04:16:00,
2013-09-27 00:21:00,51.3,49.9,30.15,NNW,334,0.0,0.0,95,0.00,,,0.00,WUHU216DAVISVP2,2013-09-27 04:21:00,
2013-09-27 00:26:00,51.3,49.9,30.15,NW,306,0.0,1.0,95,0.00,,,0.00,WUHU216DAVISVP2,2013-09-27 04:26:00,
2013-09-27 00:31:00,51.4,50.0,30.15,WNW,300,0.0,1.0,95,0.00,,,0.00,WUHU216DAVISVP2,2013-09-27 04:31:00,
2013-09-27 00:36:00,51.3,49.9,30.15,WNW,300,0.0,1.0,95,0.00,,,0.00,WUHU216DAVISVP2,2013-09-27 04:36:00,
2013-09-27 00:41:00,51.1,49.4,30.16,WNW,300,0.0,1.0,94,0.00,,,0.00,WUHU216DAVISVP2,2013-09-27 04:41:00,
2013-09-27 00:46:00,51.1,49.7,30.15,WNW,299,0.0,1.0,95,0.00,,,0.00,WUHU216DAVISVP2,2013-09-27 04:46:00,
2013-09-27 00:51:00,51.1,49.7,30.16,WNW,300,0.0,1.0,95,0.00,,,0.00,WUHU216DAVISVP2,2013-09-27 04:51:00,
2013-09-27 00:56:00,51.0,49.6,30.15,WNW,299,0.0,1.0,95,0.00,,,0.00,WUHU216DAVISVP2,2013-09-27 04:56:00,
2013-09-27 01:01:00,50.8,49.1,30.15,WNW,300,0.0,1.0,94,0.00,,,0.00,WUHU216DAVISVP2,2013-09-27 05:01:00,
2013-09-27 01:06:00,50.4,49.0,30.15,WNW,299,0.0,1.0,95,0.00,,,0.00,WUHU216DAVISVP2,2013-09-27 05:06:00,
2013-09-27 01:11:00,50.4,49.0,30.15,WNW,300,0.0,1.0,95,0.00,,,0.00,WUHU216DAVISVP2,2013-09-27 05:11:00,
2013-09-27 01:16:00,50.2,48.8,30.15,WNW,300,1.0,1.0,95,0.00,,,0.00,WUHU216DAVISVP2,2013-09-27 05:16:00,
2013-09-27 01:21:00,50.2,49.1,30.15,WNW,283,1.0,1.0,96,0.00,,,0.00,WUHU216DAVISVP2,2013-09-27 05:21:00,
2013-09-27 01:26:00,50.3,49.2,30.16,WNW,282,0.0,1.0,96,0.00,,,0.00,WUHU216DAVISVP2,2013-09-27 05:26:00,
2013-09-27 01:31:00,50.3,49.2,30.16,WNW,283,0.0,1.0,96,0.00,,,0.00,WUHU216DAVISVP2,2013-09-27 05:31:00,
2013-09-27 01:36:00,50.5,49.4,30.16,WNW,282,0.0,1.0,96,0.00,,,0.00,WUHU216DAVISVP2,2013-09-27 05:36:00,
2013-09-27 01:41:00,50.4,49.3,30.16,WNW,283,0.0,1.0,96,0.00,,,0.00,WUHU216DAVISVP2,2013-09-27 05:41:00,
2013-09-27 01:46:00,50.1,48.7,30.16,WNW,282,0.0,1.0,95,0.00,,,0.00,WUHU216DAVISVP2,2013-09-27 05:46:00,
2013-09-27 01:51:00,49.9,48.8,30.16,WNW,283,0.0,1.0,96,0.00,,,0.00,WUHU216DAVISVP2,2013-09-27 05:51:00,
2013-09-27 01:57:00,49.7,48.6,30.17,WNW,282,0.0,0.0,96,0.00,,,0.00,WUHU216DAVISVP2,2013-09-27 05:57:00,
2013-09-27 02:02:00,49.5,48.4,30.17,WNW,283,0.0,0.0,96,0.00,,,0.00,WUHU216DAVISVP2,2013-09-27 06:02:00,
2013-09-27 02:07:00,49.5,48.4,30.16,WNW,283,0.0,0.0,96,0.00,,,0.00,WUHU216DAVISVP2,2013-09-27 06:07:00,
2013-09-27 02:12:00,49.3,48.2,30.16,WNW,282,0.0,1.0,96,0.00,,,0.00,WUHU216DAVISVP2,2013-09-27 06:12:00,
2013-09-27 02:17:00,49.1,48.0,30.16,WNW,282,0.0,1.0,96,0.00,,,0.00,WUHU216DAVISVP2,2013-09-27 06:17:00,
2013-09-27 02:22:00,48.9,47.8,30.17,WNW,283,0.0,1.0,96,0.00,,,0.00,WUHU216DAVISVP2,2013-09-27 06:22:00,
2013-09-27 02:27:00,48.7,47.6,30.17,WNW,282,0.0,1.0,96,0.00,,,0.00,WUHU216DAVISVP2,2013-09-27 06:27:00,
2013-09-27 02:32:00,48.7,47.9,30.17,WNW,283,0.0,0.0,97,0.00,,,0.00,WUHU216DAVISVP2,2013-09-27 06:32:00,
2013-09-27 02:37:00,48.6,47.5,30.16,WNW,283,0.0,0.0,96,0.00,,,0.00,WUHU216DAVISVP2,2013-09-27 06:37:00,
2013-09-27 02:41:00,48.3,47.2,30.16,WNW,283,0.0,0.0,96,0.00,,,0.00,WUHU216DAVISVP2,2013-09-27 06:41:00,
2013-09-27 02:46:00,48.1,47.3,30.16,WNW,283,0.0,0.0,97,0.00,,,0.00,WUHU216DAVISVP2,2013-09-27 06:46:00,
2013-09-27 02:52:00,47.8,46.7,30.17,WNW,282,0.0,0.0,96,0.00,,,0.00,WUHU216DAVISVP2,2013-09-27 06:52:00,
2013-09-27 02:57:00,47.6,46.5,30.17,WNW,283,0.0,0.0,96,0.00,,,0.00,WUHU216DAVISVP2,2013-09-27 06:57:00,
2013-09-27 03:02:00,47.7,46.9,30.17,WNW,283,0.0,0.0,97,0.00,,,0.00,WUHU216DAVISVP2,2013-09-27 07:02:00,
2013-09-27 03:07:00,47.7,46.9,30.17,WNW,282,0.0,0.0,97,0.00,,,0.00,WUHU216DAVISVP2,2013-09-27 07:07:00,
2013-09-27 03:12:00,47.8,47.0,30.17,WNW,282,0.0,0.0,97,0.00,,,0.00,WUHU216DAVISVP2,2013-09-27 07:12:00,
2013-09-27 03:17:00,47.9,47.3,30.17,WNW,282,0.0,1.0,98,0.00,,,0.00,WUHU216DAVISVP2,2013-09-27 07:17:00,
2013-09-27 03:22:00,47.9,47.1,30.17,WNW,283,0.0,1.0,97,0.00,,,0.00,WUHU216DAVISVP2,2013-09-27 07:22:00,
2013-09-27 03:27:00,48.0,47.4,30.17,WNW,282,0.0,1.0,98,0.00,,,0.00,WUHU216DAVISVP2,2013-09-27 07:27:00,
2013-09-27 03:32:00,47.8,47.0,30.17,WNW,283,0.0,1.0,97,0.00,,,0.00,WUHU216DAVISVP2,2013-09-27 07:32:00,
2013-09-27 03:37:00,47.6,46.8,30.17,WNW,283,0.0,1.0,97,0.00,,,0.00,WUHU216DAVISVP2,2013-09-27 07:37:00,
2013-09-27 03:42:00,47.3,46.5,30.17,WNW,282,0.0,0.0,97,0.00,,,0.00,WUHU216DAVISVP2,2013-09-27 07:42:00,
2013-09-27 03:47:00,47.3,46.5,30.17,WNW,282,0.0,0.0,97,0.00,,,0.00,WUHU216DAVISVP2,2013-09-27 07:47:00,
2013-09-27 03:49:00,47.3,46.5,30.17,WNW,283,0.0,0.0,97,0.00,,,0.00,WUHU216DAVISVP2,2013-09-27 07:49:00,
2013-09-27 03:54:00,47.3,46.5,30.17,WNW,283,0.0,0.0,97,0.00,,,0.00,WUHU216DAVISVP2,2013-09-27 07:54:00,
2013-09-27 03:59:00,47.2,46.4,30.18,WNW,282,0.0,0.0,97,0.00,,,0.00,WUHU216DAVISVP2,2013-09-27 07:59:00,
2013-09-27 04:04:00,47.1,46.3,30.18,WNW,282,0.0,0.0,97,0.00,,,0.00,WUHU216DAVISVP2,2013-09-27 08:04:00,
2013-09-27 04:09:00,47.0,46.4,30.18,WNW,283,0.0,0.0,98,0.00,,,0.00,WUHU216DAVISVP2,2013-09-27 08:09:00,
2013-09-27 04:14:00,47.1,46.5,30.18,WNW,283,0.0,0.0,98,0.00,,,0.00,WUHU216DAVISVP2,2013-09-27 08:14:00,
2013-09-27 04:19:00,47.1,46.5,30.18,WNW,283,0.0,0.0,98,0.00,,,0.00,WUHU216DAVISVP2,2013-09-27 08:19:00,
2013-09-27 04:24:00,46.9,46.1,30.18,WNW,283,0.0,0.0,97,0.00,,,0.00,WUHU216DAVISVP2,2013-09-27 08:24:00,
2013-09-27 04:29:00,46.9,46.3,30.18,West,263,0.0,1.0,98,0.00,,,0.00,WUHU216DAVISVP2,2013-09-27 08:29:00,
2013-09-27 04:34:00,46.8,46.2,30.18,SW,225,0.0,1.0,98,0.00,,,0.00,WUHU216DAVISVP2,2013-09-27 08:34:00,
2013-09-27 04:39:00,46.6,46.0,30.18,SW,225,0.0,1.0,98,0.00,,,0.00,WUHU216DAVISVP2,2013-09-27 08:39:00,
2013-09-27 04:44:00,46.8,46.2,30.19,SW,225,0.0,1.0,98,0.00,,,0.00,WUHU216DAVISVP2,2013-09-27 08:44:00,
2013-09-27 04:49:00,46.6,46.0,30.19,SW,225,0.0,1.0,98,0.00,,,0.00,WUHU216DAVISVP2,2013-09-27 08:49:00,
2013-09-27 04:54:00,46.3,45.5,30.19,SW,225,0.0,1.0,97,0.00,,,0.00,WUHU216DAVISVP2,2013-09-27 08:54:00,
2013-09-27 04:59:00,46.1,45.3,30.19,SW,225,0.0,0.0,97,0.00,,,0.00,WUHU216DAVISVP2,2013-09-27 08:59:00,
2013-09-27 05:04:00,46.4,45.8,30.20,SW,225,0.0,0.0,98,0.00,,,0.00,WUHU216DAVISVP2,2013-09-27 09:04:00,
2013-09-27 05:09:00,46.6,46.1,30.20,SW,225,0.0,0.0,98,0.00,,,0.00,WUHU216DAVISVP2,2013-09-27 09:09:00,
2013-09-27 05:14:00,46.4,45.9,30.19,SW,225,0.0,0.0,98,0.00,,,0.00,WUHU216DAVISVP2,2013-09-27 09:14:00,
2013-09-27 05:19:00,46.4,45.9,30.20,SW,225,0.0,0.0,98,0.00,,,0.00,WUHU216DAVISVP2,2013-09-27 09:19:00,
2013-09-27 05:24:00,46.4,45.9,30.20,SW,225,0.0,0.0,98,0.00,,,0.00,WUHU216DAVISVP2,2013-09-27 09:24:00,
2013-09-27 05:29:00,46.3,45.7,30.20,SW,225,0.0,0.0,98,0.00,,,0.00,WUHU216DAVISVP2,2013-09-27 09:29:00,
2013-09-27 05:34:00,46.1,45.5,30.20,SW,225,0.0,0.0,98,0.00,,,0.00,WUHU216DAVISVP2,2013-09-27 09:34:00,
2013-09-27 05:39:00,46.1,45.5,30.20,SW,225,0.0,1.0,98,0.00,,,0.00,WUHU216DAVISVP2,2013-09-27 09:39:00,
2013-09-27 05:44:00,46.0,45.4,30.20,SW,225,0.0,1.0,98,0.00,,,0.00,WUHU216DAVISVP2,2013-09-27 09:44:00,
2013-09-27 05:49:00,46.2,45.6,30.20,SW,225,0.0,1.0,98,0.00,,,0.00,WUHU216DAVISVP2,2013-09-27 09:49:00,
2013-09-27 05:54:00,46.1,45.5,30.20,SW,225,0.0,1.0,98,0.00,,,0.00,WUHU216DAVISVP2,2013-09-27 09:54:00,
2013-09-27 05:59:00,46.1,45.5,30.21,SW,225,0.0,0.0,98,0.00,,,0.00,WUHU216DAVISVP2,2013-09-27 09:59:00,
2013-09-27 06:04:00,46.0,45.4,30.21,SW,225,0.0,0.0,98,0.00,,,0.00,WUHU216DAVISVP2,2013-09-27 10:04:00,
2013-09-27 06:09:00,46.2,45.6,30.21,SW,225,0.0,1.0,98,0.00,,,0.00,WUHU216DAVISVP2,2013-09-27 10:09:00,
2013-09-27 06:14:00,46.5,46.2,30.21,SW,225,0.0,1.0,99,0.00,,,0.00,WUHU216DAVISVP2,2013-09-27 10:14:00,
2013-09-27 06:19:00,46.5,46.2,30.21,SW,225,0.0,1.0,99,0.00,,,0.00,WUHU216DAVISVP2,2013-09-27 10:19:00,
2013-09-27 06:24:00,46.7,46.4,30.21,SW,225,0.0,1.0,99,0.00,,,0.00,WUHU216DAVISVP2,2013-09-27 10:24:00,
2013-09-27 06:29:00,46.5,46.0,30.21,SW,225,0.0,1.0,98,0.00,,,0.00,WUHU216DAVISVP2,2013-09-27 10:29:00,
2013-09-27 06:34:00,46.4,45.9,30.22,SW,225,0.0,0.0,98,0.00,,,0.00,WUHU216DAVISVP2,2013-09-27 10:34:00,
2013-09-27 06:39:00,46.2,45.7,30.22,SW,225,0.0,0.0,98,0.00,,,0.00,WUHU216DAVISVP2,2013-09-27 10:39:00,
2013-09-27 06:44:00,46.6,46.0,30.22,SW,225,0.0,0.0,98,0.01,,,0.01,WUHU216DAVISVP2,2013-09-27 10:44:00,
2013-09-27 06:49:00,46.8,46.5,30.22,SW,225,0.0,0.0,99,0.01,,,0.01,WUHU216DAVISVP2,2013-09-27 10:49:00,
2013-09-27 06:54:00,46.8,46.5,30.22,SW,225,0.0,0.0,99,0.01,,,0.01,WUHU216DAVISVP2,2013-09-27 10:54:00,
2013-09-27 06:59:00,46.7,46.1,30.22,SW,225,0.0,0.0,98,0.01,,,0.01,WUHU216DAVISVP2,2013-09-27 10:59:00,
2013-09-27 07:04:00,46.6,46.0,30.23,SW,225,0.0,0.0,98,0.01,,,0.01,WUHU216DAVISVP2,2013-09-27 11:04:00,
2013-09-27 07:09:00,46.5,45.9,30.23,SW,225,0.0,0.0,98,0.01,,,0.01,WUHU216DAVISVP2,2013-09-27 11:09:00,
2013-09-27 07:14:00,46.8,46.3,30.23,SW,225,0.0,0.0,98,0.01,,,0.01,WUHU216DAVISVP2,2013-09-27 11:14:00,
2013-09-27 07:19:00,46.9,46.6,30.23,SW,225,0.0,0.0,99,0.01,,,0.01,WUHU216DAVISVP2,2013-09-27 11:19:00,
2013-09-27 07:24:00,46.6,46.0,30.23,SW,225,0.0,0.0,98,0.01,,,0.01,WUHU216DAVISVP2,2013-09-27 11:24:00,
2013-09-27 07:29:00,47.1,46.8,30.23,SW,225,0.0,0.0,99,0.01,,,0.01,WUHU216DAVISVP2,2013-09-27 11:29:00,
2013-09-27 07:34:00,47.5,47.2,30.23,SW,225,0.0,0.0,99,0.01,,,0.01,WUHU216DAVISVP2,2013-09-27 11:34:00,
2013-09-27 07:39:00,48.0,47.7,30.23,SW,225,0.0,0.0,99,0.01,,,0.01,WUHU216DAVISVP2,2013-09-27 11:39:00,
2013-09-27 07:44:00,48.3,47.7,30.24,SW,225,0.0,0.0,98,0.00,,,0.01,WUHU216DAVISVP2,2013-09-27 11:44:00,
2013-09-27 07:49:00,49.0,48.4,30.23,SSE,148,0.0,1.0,98,0.00,,,0.01,WUHU216DAVISVP2,2013-09-27 11:49:00,
2013-09-27 07:54:00,49.3,48.7,30.24,SE,146,1.0,1.0,98,0.00,,,0.01,WUHU216DAVISVP2,2013-09-27 11:54:00,
2013-09-27 07:59:00,49.6,49.0,30.23,SSE,152,1.0,2.0,98,0.00,,,0.01,WUHU216DAVISVP2,2013-09-27 11:59:00,
2013-09-27 08:04:00,50.0,49.4,30.23,ESE,121,1.0,2.0,98,0.00,,,0.01,WUHU216DAVISVP2,2013-09-27 12:04:00,
2013-09-27 08:09:00,50.4,49.8,30.24,SE,124,0.0,3.0,98,0.00,,,0.01,WUHU216DAVISVP2,2013-09-27 12:09:00,
2013-09-27 08:14:00,50.9,50.3,30.24,SSW,210,0.0,3.0,98,0.00,,,0.01,WUHU216DAVISVP2,2013-09-27 12:14:00,
2013-09-27 08:19:00,51.5,50.9,30.24,SSE,149,0.0,4.0,98,0.00,,,0.01,WUHU216DAVISVP2,2013-09-27 12:19:00,
2013-09-27 08:24:00,52.0,51.4,30.24,SE,128,0.0,4.0,98,0.00,,,0.01,WUHU216DAVISVP2,2013-09-27 12:24:00,
2013-09-27 08:29:00,52.4,51.5,30.24,SSW,208,0.0,4.0,97,0.00,,,0.01,WUHU216DAVISVP2,2013-09-27 12:29:00,
2013-09-27 08:34:00,52.6,51.5,30.24,SW,228,1.0,4.0,96,0.00,,,0.01,WUHU216DAVISVP2,2013-09-27 12:34:00,
2013-09-27 08:39:00,52.7,51.6,30.24,SW,218,1.0,4.0,96,0.00,,,0.01,WUHU216DAVISVP2,2013-09-27 12:39:00,
2013-09-27 08:44:00,53.1,52.0,30.24,SE,131,2.0,4.0,96,0.00,,,0.01,WUHU216DAVISVP2,2013-09-27 12:44:00,
2013-09-27 08:49:00,53.4,52.0,30.24,SSW,208,1.0,4.0,95,0.00,,,0.01,WUHU216DAVISVP2,2013-09-27 12:49:00,
2013-09-27 08:54:00,53.9,52.5,30.25,SE,142,1.0,4.0,95,0.00,,,0.01,WUHU216DAVISVP2,2013-09-27 12:54:00,
2013-09-27 08:59:00,54.3,52.6,30.25,SE,142,2.0,4.0,94,0.00,,,0.01,WUHU216DAVISVP2,2013-09-27 12:59:00,
2013-09-27 09:04:00,54.6,52.6,30.25,SW,226,1.0,4.0,93,0.00,,,0.01,WUHU216DAVISVP2,2013-09-27 13:04:00,
2013-09-27 09:09:00,54.9,52.9,30.25,ESE,116,0.0,4.0,93,0.00,,,0.01,WUHU216DAVISVP2,2013-09-27 13:09:00,
2013-09-27 09:14:00,55.5,53.5,30.25,SE,136,1.0,4.0,93,0.00,,,0.01,WUHU216DAVISVP2,2013-09-27 13:14:00,
2013-09-27 09:19:00,56.2,53.6,30.25,South,186,0.0,4.0,91,0.00,,,0.01,WUHU216DAVISVP2,2013-09-27 13:19:00,
2013-09-27 09:24:00,56.3,53.7,30.25,SW,235,1.0,4.0,91,0.00,,,0.01,WUHU216DAVISVP2,2013-09-27 13:24:00,
2013-09-27 09:29:00,56.3,53.1,30.26,ESE,120,0.0,4.0,89,0.00,,,0.01,WUHU216DAVISVP2,2013-09-27 13:29:00,
2013-09-27 09:34:00,56.6,53.7,30.26,SW,235,1.0,4.0,90,0.00,,,0.01,WUHU216DAVISVP2,2013-09-27 13:34:00,
2013-09-27 09:39:00,56.9,53.4,30.26,ENE,71,4.0,5.0,88,0.00,,,0.01,WUHU216DAVISVP2,2013-09-27 13:39:00,
2013-09-27 09:44:00,57.4,54.2,30.26,WSW,242,1.0,5.0,89,0.00,,,0.01,WUHU216DAVISVP2,2013-09-27 13:44:00,
2013-09-27 09:49:00,58.1,54.6,30.25,SW,236,2.0,5.0,88,0.00,,,0.01,WUHU216DAVISVP2,2013-09-27 13:49:00,
2013-09-27 09:54:00,58.2,54.0,30.26,South,183,2.0,5.0,86,0.00,,,0.01,WUHU216DAVISVP2,2013-09-27 13:54:00,
2013-09-27 09:59:00,57.7,53.9,30.26,SSW,212,3.0,5.0,87,0.00,,,0.01,WUHU216DAVISVP2,2013-09-27 13:59:00,
2013-09-27 10:04:00,57.2,53.4,30.26,WNW,288,2.0,5.0,87,0.00,,,0.01,WUHU216DAVISVP2,2013-09-27 14:04:00,
2013-09-27 10:09:00,57.3,53.8,30.26,SSW,212,2.0,5.0,88,0.00,,,0.01,WUHU216DAVISVP2,2013-09-27 14:09:00,
2013-09-27 10:14:00,57.6,53.8,30.26,SW,218,3.0,5.0,87,0.00,,,0.01,WUHU216DAVISVP2,2013-09-27 14:14:00,
2013-09-27 10:19:00,57.6,53.8,30.26,SE,124,2.0,4.0,87,0.00,,,0.01,WUHU216DAVISVP2,2013-09-27 14:19:00,
2013-09-27 10:24:00,58.0,54.2,30.26,West,271,1.0,4.0,87,0.00,,,0.01,WUHU216DAVISVP2,2013-09-27 14:24:00,
2013-09-27 10:29:00,58.7,54.8,30.26,SSW,205,3.0,5.0,87,0.00,,,0.01,WUHU216DAVISVP2,2013-09-27 14:29:00,
2013-09-27 10:34:00,58.7,53.9,30.26,SSE,148,1.0,5.0,84,0.00,,,0.01,WUHU216DAVISVP2,2013-09-27 14:34:00,
2013-09-27 10:39:00,58.6,54.4,30.26,SE,133,2.0,5.0,86,0.00,,,0.01,WUHU216DAVISVP2,2013-09-27 14:39:00,
2013-09-27 10:44:00,58.7,54.5,30.26,SW,217,1.0,5.0,86,0.00,,,0.01,WUHU216DAVISVP2,2013-09-27 14:44:00,
2013-09-27 10:49:00,58.8,54.3,30.26,West,263,1.0,4.0,85,0.00,,,0.01,WUHU216DAVISVP2,2013-09-27 14:49:00,
2013-09-27 10:54:00,58.8,54.3,30.26,West,259,2.0,4.0,85,0.00,,,0.01,WUHU216DAVISVP2,2013-09-27 14:54:00,
2013-09-27 10:59:00,58.7,54.2,30.26,SW,221,0.0,3.0,85,0.00,,,0.01,WUHU216DAVISVP2,2013-09-27 14:59:00,
2013-09-27 11:04:00,59.2,55.0,30.26,WSW,246,1.0,3.0,86,0.00,,,0.01,WUHU216DAVISVP2,2013-09-27 15:04:00,
2013-09-27 11:09:00,59.9,55.1,30.27,SSW,212,3.0,3.0,84,0.00,,,0.01,WUHU216DAVISVP2,2013-09-27 15:09:00,
2013-09-27 11:14:00,60.3,55.1,30.26,WSW,248,0.0,3.0,83,0.00,,,0.01,WUHU216DAVISVP2,2013-09-27 15:14:00,
2013-09-27 11:19:00,61.0,56.1,30.27,SW,214,0.0,3.0,84,0.00,,,0.01,WUHU216DAVISVP2,2013-09-27 15:19:00,
2013-09-27 11:24:00,61.6,56.1,30.27,WSW,244,0.0,3.0,82,0.00,,,0.01,WUHU216DAVISVP2,2013-09-27 15:24:00,
2013-09-27 11:29:00,61.0,55.5,30.27,SW,232,0.0,5.0,82,0.00,,,0.01,WUHU216DAVISVP2,2013-09-27 15:29:00,
2013-09-27 11:34:00,61.3,55.5,30.27,West,281,0.0,5.0,81,0.00,,,0.01,WUHU216DAVISVP2,2013-09-27 15:34:00,
2013-09-27 11:39:00,61.6,55.8,30.27,NNW,329,2.0,4.0,81,0.00,,,0.01,WUHU216DAVISVP2,2013-09-27 15:39:00,
2013-09-27 11:44:00,62.2,55.7,30.27,SW,217,2.0,4.0,79,0.00,,,0.01,WUHU216DAVISVP2,2013-09-27 15:44:00,
2013-09-27 11:49:00,62.8,55.9,30.27,SW,218,3.0,5.0,78,0.00,,,0.01,WUHU216DAVISVP2,2013-09-27 15:49:00,
2013-09-27 11:54:00,63.2,56.0,30.27,WSW,240,0.0,5.0,77,0.00,,,0.01,WUHU216DAVISVP2,2013-09-27 15:54:00,
2013-09-27 11:59:00,63.6,56.7,30.27,East,79,1.0,5.0,78,0.00,,,0.01,WUHU216DAVISVP2,2013-09-27 15:59:00,
2013-09-27 12:04:00,64.5,56.9,30.27,NNW,345,0.0,5.0,76,0.00,,,0.01,WUHU216DAVISVP2,2013-09-27 16:04:00,
2013-09-27 12:09:00,65.4,56.7,30.26,SSW,211,0.0,5.0,73,0.00,,,0.01,WUHU216DAVISVP2,2013-09-27 16:09:00,
2013-09-27 12:14:00,65.8,56.7,30.26,WNW,301,1.0,4.0,72,0.00,,,0.01,WUHU216DAVISVP2,2013-09-27 16:14:00,
2013-09-27 12:19:00,65.1,56.4,30.26,NNW,338,1.0,3.0,73,0.00,,,0.01,WUHU216DAVISVP2,2013-09-27 16:19:00,
2013-09-27 12:24:00,64.6,55.5,30.26,East,92,2.0,4.0,72,0.00,,,0.01,WUHU216DAVISVP2,2013-09-27 16:24:00,
2013-09-27 12:29:00,64.2,55.9,30.26,WSW,257,1.0,4.0,74,0.00,,,0.01,WUHU216DAVISVP2,2013-09-27 16:29:00,
2013-09-27 12:34:00,64.2,56.1,30.26,SW,232,1.0,3.0,75,0.00,,,0.01,WUHU216DAVISVP2,2013-09-27 16:34:00,
2013-09-27 12:39:00,64.9,56.4,30.26,SSE,162,0.0,3.0,74,0.00,,,0.01,WUHU216DAVISVP2,2013-09-27 16:39:00,
2013-09-27 12:44:00,65.6,55.9,30.26,WNW,289,2.0,4.0,71,0.00,,,0.01,WUHU216DAVISVP2,2013-09-27 16:44:00,
2013-09-27 12:49:00,65.6,56.3,30.26,SSE,149,0.0,4.0,72,0.00,,,0.01,WUHU216DAVISVP2,2013-09-27 16:49:00,
2013-09-27 12:54:00,66.4,56.3,30.26,WNW,283,1.0,4.0,70,0.00,,,0.01,WUHU216DAVISVP2,2013-09-27 16:54:00,
2013-09-27 12:59:00,66.3,55.8,30.25,East,88,0.0,4.0,69,0.00,,,0.01,WUHU216DAVISVP2,2013-09-27 16:59:00,
2013-09-27 13:04:00,66.7,56.6,30.25,SW,231,0.0,4.0,70,0.00,,,0.01,WUHU216DAVISVP2,2013-09-27 17:04:00,
2013-09-27 13:09:00,67.0,56.1,30.25,ENE,68,2.0,4.0,68,0.00,,,0.01,WUHU216DAVISVP2,2013-09-27 17:09:00,
2013-09-27 13:14:00,66.5,56.8,30.25,NE,56,2.0,4.0,71,0.00,,,0.01,WUHU216DAVISVP2,2013-09-27 17:14:00,
2013-09-27 13:19:00,66.7,57.2,30.25,ESE,108,0.0,4.0,71,0.00,,,0.01,WUHU216DAVISVP2,2013-09-27 17:19:00,
2013-09-27 13:24:00,67.3,56.5,30.25,NNW,328,4.0,6.0,68,0.00,,,0.01,WUHU216DAVISVP2,2013-09-27 17:24:00,
2013-09-27 13:26:00,67.0,55.9,30.25,NW,307,2.0,6.0,67,0.00,,,0.01,WUHU216DAVISVP2,2013-09-27 17:26:00,
2013-09-27 13:31:00,66.5,55.8,30.24,North,6,3.0,6.0,68,0.00,,,0.01,WUHU216DAVISVP2,2013-09-27 17:31:00,
2013-09-27 13:36:00,67.1,56.8,30.24,NW,312,1.0,6.0,69,0.00,,,0.01,WUHU216DAVISVP2,2013-09-27 17:36:00,
2013-09-27 13:41:00,67.6,56.8,30.24,WNW,293,1.0,6.0,68,0.00,,,0.01,WUHU216DAVISVP2,2013-09-27 17:41:00,
2013-09-27 13:46:00,68.4,56.8,30.24,SSE,154,0.0,4.0,66,0.00,,,0.01,WUHU216DAVISVP2,2013-09-27 17:46:00,
2013-09-27 13:51:00,69.0,57.4,30.24,NW,315,3.0,7.0,66,0.00,,,0.01,WUHU216DAVISVP2,2013-09-27 17:51:00,
2013-09-27 13:56:00,67.8,57.0,30.24,East,99,0.0,8.0,68,0.00,,,0.01,WUHU216DAVISVP2,2013-09-27 17:56:00,
2013-09-27 14:01:00,67.5,56.3,30.24,NNW,333,2.0,8.0,67,0.00,,,0.01,WUHU216DAVISVP2,2013-09-27 18:01:00,
2013-09-27 14:06:00,67.1,56.4,30.24,North,5,0.0,7.0,68,0.00,,,0.01,WUHU216DAVISVP2,2013-09-27 18:06:00,
2013-09-27 14:11:00,67.5,56.3,30.23,East,91,0.0,7.0,67,0.00,,,0.01,WUHU216DAVISVP2,2013-09-27 18:11:00,
2013-09-27 14:16:00,68.0,56.8,30.23,NW,319,2.0,5.0,67,0.00,,,0.01,WUHU216DAVISVP2,2013-09-27 18:16:00,
2013-09-27 14:21:00,67.6,56.8,30.23,NW,322,2.0,7.0,68,0.00,,,0.01,WUHU216DAVISVP2,2013-09-27 18:21:00,
2013-09-27 14:26:00,67.6,56.7,30.23,East,101,2.0,7.0,68,0.00,,,0.01,WUHU216DAVISVP2,2013-09-27 18:26:00,
2013-09-27 14:31:00,67.7,56.3,30.23,ENE,67,4.0,6.0,67,0.00,,,0.01,WUHU216DAVISVP2,2013-09-27 18:31:00,
2013-09-27 14:36:00,67.9,56.5,30.23,WNW,297,1.0,6.0,67,0.00,,,0.01,WUHU216DAVISVP2,2013-09-27 18:36:00,
2013-09-27 14:41:00,68.6,57.2,30.23,SW,219,1.0,6.0,67,0.00,,,0.01,WUHU216DAVISVP2,2013-09-27 18:41:00,
2013-09-27 14:46:00,68.7,56.6,30.23,NNE,12,6.0,10.0,65,0.00,,,0.01,WUHU216DAVISVP2,2013-09-27 18:46:00,
2013-09-27 14:51:00,67.7,56.3,30.23,NNE,13,4.0,10.0,67,0.00,,,0.01,WUHU216DAVISVP2,2013-09-27 18:51:00,
2013-09-27 14:56:00,67.5,56.7,30.23,East,89,1.0,9.0,68,0.00,,,0.01,WUHU216DAVISVP2,2013-09-27 18:56:00,
2013-09-27 15:01:00,67.9,56.7,30.23,North,351,1.0,9.0,67,0.00,,,0.01,WUHU216DAVISVP2,2013-09-27 19:01:00,
2013-09-27 15:06:00,68.6,57.8,30.23,North,352,3.0,7.0,68,0.00,,,0.01,WUHU216DAVISVP2,2013-09-27 19:06:00,
2013-09-27 15:11:00,69.1,57.4,30.23,NNE,27,7.0,7.0,66,0.00,,,0.01,WUHU216DAVISVP2,2013-09-27 19:11:00,
2013-09-27 15:16:00,68.4,56.8,30.23,NNE,23,5.0,10.0,66,0.00,,,0.01,WUHU216DAVISVP2,2013-09-27 19:16:00,
2013-09-27 15:21:00,68.0,57.2,30.23,WNW,302,3.0,10.0,68,0.00,,,0.01,WUHU216DAVISVP2,2013-09-27 19:21:00,
2013-09-27 15:26:00,68.0,57.2,30.23,NNE,19,0.0,9.0,68,0.00,,,0.01,WUHU216DAVISVP2,2013-09-27 19:26:00,
2013-09-27 15:31:00,68.2,56.6,30.22,NE,39,8.0,9.0,66,0.00,,,0.01,WUHU216DAVISVP2,2013-09-27 19:31:00,
2013-09-27 15:36:00,68.0,56.4,30.22,NW,323,0.0,8.0,66,0.00,,,0.01,WUHU216DAVISVP2,2013-09-27 19:36:00,
2013-09-27 15:41:00,68.4,56.4,30.22,NNE,13,3.0,8.0,65,0.00,,,0.01,WUHU216DAVISVP2,2013-09-27 19:41:00,
2013-09-27 15:46:00,68.4,56.4,30.22,NNE,32,0.0,8.0,65,0.00,,,0.01,WUHU216DAVISVP2,2013-09-27 19:46:00,
2013-09-27 15:51:00,68.6,56.5,30.22,NNE,32,3.0,6.0,65,0.00,,,0.01,WUHU216DAVISVP2,2013-09-27 19:51:00,
2013-09-27 15:56:00,68.6,55.7,30.22,NNE,33,7.0,9.0,63,0.00,,,0.01,WUHU216DAVISVP2,2013-09-27 19:56:00,
2013-09-27 16:01:00,68.0,56.0,30.22,NNW,337,4.0,9.0,65,0.00,,,0.01,WUHU216DAVISVP2,2013-09-27 20:01:00,
2013-09-27 16:06:00,67.8,56.2,30.22,NW,326,1.0,9.0,66,0.00,,,0.01,WUHU216DAVISVP2,2013-09-27 20:06:00,
2013-09-27 16:11:00,68.0,56.0,30.22,East,82,3.0,8.0,65,0.00,,,0.01,WUHU216DAVISVP2,2013-09-27 20:11:00,
2013-09-27 16:16:00,67.9,55.9,30.22,East,86,1.0,8.0,65,0.00,,,0.01,WUHU216DAVISVP2,2013-09-27 20:16:00,
2013-09-27 16:21:00,68.3,55.8,30.22,ENE,64,2.0,8.0,64,0.00,,,0.01,WUHU216DAVISVP2,2013-09-27 20:21:00,
2013-09-27 16:26:00,68.7,56.6,30.22,NNE,32,6.0,8.0,65,0.00,,,0.01,WUHU216DAVISVP2,2013-09-27 20:26:00,
2013-09-27 16:31:00,68.6,55.7,30.22,NNE,30,3.0,9.0,63,0.00,,,0.01,WUHU216DAVISVP2,2013-09-27 20:31:00,
2013-09-27 16:36:00,68.6,55.7,30.22,NNE,12,4.0,9.0,63,0.00,,,0.01,WUHU216DAVISVP2,2013-09-27 20:36:00,
2013-09-27 16:41:00,68.8,55.9,30.22,NNE,20,3.0,8.0,63,0.00,,,0.01,WUHU216DAVISVP2,2013-09-27 20:41:00,
2013-09-27 16:46:00,69.0,56.7,30.22,NE,41,1.0,8.0,65,0.00,,,0.01,WUHU216DAVISVP2,2013-09-27 20:46:00,
2013-09-27 16:51:00,68.8,57.0,30.22,NNW,332,3.0,10.0,66,0.00,,,0.01,WUHU216DAVISVP2,2013-09-27 20:51:00,
2013-09-27 16:56:00,68.8,57.0,30.22,NNW,333,3.0,10.0,66,0.00,,,0.01,WUHU216DAVISVP2,2013-09-27 20:56:00,
2013-09-27 17:01:00,68.5,56.7,30.23,NW,311,5.0,9.0,66,0.00,,,0.01,WUHU216DAVISVP2,2013-09-27 21:01:00,
2013-09-27 17:06:00,68.3,57.3,30.23,NNE,30,7.0,11.0,68,0.00,,,0.01,WUHU216DAVISVP2,2013-09-27 21:06:00,
2013-09-27 17:11:00,67.9,57.8,30.23,NNW,336,4.0,11.0,70,0.00,,,0.01,WUHU216DAVISVP2,2013-09-27 21:11:00,
2013-09-27 17:16:00,67.1,57.8,30.23,NE,44,4.0,11.0,72,0.00,,,0.01,WUHU216DAVISVP2,2013-09-27 21:16:00,
2013-09-27 17:21:00,66.4,57.5,30.23,North,6,4.0,10.0,73,0.00,,,0.01,WUHU216DAVISVP2,2013-09-27 21:21:00,
2013-09-27 17:26:00,66.0,57.5,30.23,NW,312,3.0,10.0,74,0.00,,,0.01,WUHU216DAVISVP2,2013-09-27 21:26:00,
2013-09-27 17:31:00,65.8,57.3,30.23,NW,323,3.0,8.0,74,0.00,,,0.01,WUHU216DAVISVP2,2013-09-27 21:31:00,
2013-09-27 17:36:00,66.1,57.7,30.23,NNW,334,4.0,8.0,74,0.00,,,0.01,WUHU216DAVISVP2,2013-09-27 21:36:00,
2013-09-27 17:41:00,66.4,57.6,30.23,WNW,295,3.0,8.0,73,0.00,,,0.01,WUHU216DAVISVP2,2013-09-27 21:41:00,
2013-09-27 17:46:00,66.6,57.8,30.23,NNE,17,6.0,6.0,73,0.00,,,0.01,WUHU216DAVISVP2,2013-09-27 21:46:00,
2013-09-27 17:51:00,66.6,57.4,30.23,NNE,21,6.0,8.0,72,0.00,,,0.01,WUHU216DAVISVP2,2013-09-27 21:51:00,
2013-09-27 17:56:00,66.6,57.8,30.23,NNW,342,2.0,10.0,73,0.00,,,0.01,WUHU216DAVISVP2,2013-09-27 21:56:00,
2013-09-27 18:01:00,66.5,57.7,30.23,North,360,2.0,10.0,73,0.00,,,0.01,WUHU216DAVISVP2,2013-09-27 22:01:00,
2013-09-27 18:06:00,66.4,57.6,30.23,NW,323,2.0,9.0,73,0.00,,,0.01,WUHU216DAVISVP2,2013-09-27 22:06:00,
2013-09-27 18:11:00,66.2,57.4,30.23,NNW,333,1.0,9.0,73,0.00,,,0.01,WUHU216DAVISVP2,2013-09-27 22:11:00,
2013-09-27 18:16:00,65.7,57.3,30.23,NNE,18,4.0,6.0,74,0.00,,,0.01,WUHU216DAVISVP2,2013-09-27 22:16:00,
2013-09-27 18:21:00,65.3,57.3,30.23,NE,43,3.0,9.0,75,0.00,,,0.01,WUHU216DAVISVP2,2013-09-27 22:21:00,
2013-09-27 18:26:00,64.9,57.3,30.23,NE,40,2.0,9.0,76,0.00,,,0.01,WUHU216DAVISVP2,2013-09-27 22:26:00,
2013-09-27 18:31:00,64.5,57.2,30.23,NNE,30,2.0,8.0,77,0.00,,,0.01,WUHU216DAVISVP2,2013-09-27 22:31:00,
2013-09-27 18:36:00,64.1,57.2,30.23,NNW,335,1.0,8.0,78,0.00,,,0.01,WUHU216DAVISVP2,2013-09-27 22:36:00,
2013-09-27 18:41:00,63.7,56.8,30.23,North,6,3.0,4.0,78,0.00,,,0.01,WUHU216DAVISVP2,2013-09-27 22:41:00,
2013-09-27 18:46:00,63.3,56.8,30.23,NNW,327,1.0,4.0,79,0.00,,,0.01,WUHU216DAVISVP2,2013-09-27 22:46:00,
2013-09-27 18:51:00,62.9,56.7,30.24,NW,314,0.0,4.0,80,0.00,,,0.01,WUHU216DAVISVP2,2013-09-27 22:51:00,
2013-09-27 18:56:00,62.5,56.6,30.24,NE,39,0.0,4.0,81,0.00,,,0.01,WUHU216DAVISVP2,2013-09-27 22:56:00,
2013-09-27 19:01:00,62.2,56.3,30.24,North,9,0.0,3.0,81,0.00,,,0.01,WUHU216DAVISVP2,2013-09-27 23:01:00,
2013-09-27 19:06:00,62.0,56.5,30.24,NE,46,0.0,3.0,82,0.00,,,0.01,WUHU216DAVISVP2,2013-09-27 23:06:00,
2013-09-27 19:11:00,61.8,56.3,30.24,North,9,1.0,4.0,82,0.00,,,0.01,WUHU216DAVISVP2,2013-09-27 23:11:00,
2013-09-27 19:16:00,61.6,56.1,30.24,NNE,30,0.0,4.0,82,0.00,,,0.01,WUHU216DAVISVP2,2013-09-27 23:16:00,
2013-09-27 19:21:00,61.3,56.1,30.24,NNE,19,1.0,3.0,83,0.00,,,0.01,WUHU216DAVISVP2,2013-09-27 23:21:00,
2013-09-27 19:26:00,61.0,56.1,30.24,North,1,1.0,4.0,84,0.00,,,0.01,WUHU216DAVISVP2,2013-09-27 23:26:00,
2013-09-27 19:31:00,60.7,55.9,30.24,North,352,0.0,4.0,84,0.00,,,0.01,WUHU216DAVISVP2,2013-09-27 23:31:00,
2013-09-27 19:36:00,60.6,55.8,30.24,NNW,345,1.0,3.0,84,0.00,,,0.01,WUHU216DAVISVP2,2013-09-27 23:36:00,
2013-09-27 19:41:00,60.5,55.7,30.24,NE,36,1.0,3.0,84,0.00,,,0.01,WUHU216DAVISVP2,2013-09-27 23:41:00,
2013-09-27 19:46:00,60.3,55.5,30.24,North,1,1.0,4.0,84,0.00,,,0.01,WUHU216DAVISVP2,2013-09-27 23:46:00,
2013-09-27 19:51:00,60.2,55.4,30.24,NNW,342,0.0,4.0,84,0.00,,,0.01,WUHU216DAVISVP2,2013-09-27 23:51:00,
2013-09-27 19:56:00,60.0,55.5,30.25,North,353,1.0,3.0,85,0.00,,,0.01,WUHU216DAVISVP2,2013-09-27 23:56:00,
2013-09-27 20:01:00,59.8,55.3,30.25,NNE,22,0.0,3.0,85,0.00,,,0.01,WUHU216DAVISVP2,2013-09-28 00:01:00,
2013-09-27 20:06:00,59.5,55.3,30.25,NW,325,0.0,3.0,86,0.00,,,0.01,WUHU216DAVISVP2,2013-09-28 00:06:00,
2013-09-27 20:11:00,59.2,55.0,30.25,NW,325,0.0,3.0,86,0.00,,,0.01,WUHU216DAVISVP2,2013-09-28 00:11:00,
2013-09-27 20:16:00,58.9,55.0,30.25,NW,325,0.0,1.0,87,0.00,,,0.01,WUHU216DAVISVP2,2013-09-28 00:16:00,
2013-09-27 20:21:00,58.6,55.0,30.25,NNW,327,1.0,2.0,88,0.00,,,0.01,WUHU216DAVISVP2,2013-09-28 00:21:00,
2013-09-27 20:26:00,58.3,54.7,30.25,NW,319,0.0,2.0,88,0.00,,,0.01,WUHU216DAVISVP2,2013-09-28 00:26:00,
2013-09-27 20:31:00,58.0,54.8,30.25,NW,321,0.0,2.0,89,0.00,,,0.01,WUHU216DAVISVP2,2013-09-28 00:31:00,
2013-09-27 20:36:00,57.9,54.7,30.25,NW,322,0.0,2.0,89,0.00,,,0.01,WUHU216DAVISVP2,2013-09-28 00:36:00,
2013-09-27 20:41:00,57.7,54.5,30.25,North,1,1.0,1.0,89,0.00,,,0.01,WUHU216DAVISVP2,2013-09-28 00:41:00,
2013-09-27 20:46:00,57.6,54.7,30.25,North,1,0.0,1.0,90,0.00,,,0.01,WUHU216DAVISVP2,2013-09-28 00:46:00,
2013-09-27 20:51:00,57.4,54.5,30.25,North,11,0.0,1.0,90,0.00,,,0.01,WUHU216DAVISVP2,2013-09-28 00:51:00,
2013-09-27 20:56:00,57.0,54.1,30.25,North,9,0.0,1.0,90,0.00,,,0.01,WUHU216DAVISVP2,2013-09-28 00:56:00,
2013-09-27 21:01:00,56.7,54.1,30.25,North,349,0.0,1.0,91,0.00,,,0.01,WUHU216DAVISVP2,2013-09-28 01:01:00,
2013-09-27 21:06:00,56.5,54.2,30.25,North,349,0.0,1.0,92,0.00,,,0.01,WUHU216DAVISVP2,2013-09-28 01:06:00,
2013-09-27 21:11:00,56.3,54.0,30.25,North,349,0.0,1.0,92,0.00,,,0.01,WUHU216DAVISVP2,2013-09-28 01:11:00,
2013-09-27 21:16:00,56.2,53.9,30.25,NNW,343,0.0,1.0,92,0.00,,,0.01,WUHU216DAVISVP2,2013-09-28 01:16:00,
2013-09-27 21:21:00,56.1,54.1,30.26,NNW,343,1.0,1.0,93,0.00,,,0.01,WUHU216DAVISVP2,2013-09-28 01:21:00,
2013-09-27 21:26:00,56.0,54.0,30.26,NNW,340,0.0,1.0,93,0.00,,,0.01,WUHU216DAVISVP2,2013-09-28 01:26:00,
2013-09-27 21:31:00,55.9,53.9,30.26,NNW,340,0.0,1.0,93,0.00,,,0.01,WUHU216DAVISVP2,2013-09-28 01:31:00,
2013-09-27 21:36:00,55.7,53.7,30.26,NNW,340,0.0,1.0,93,0.00,,,0.01,WUHU216DAVISVP2,2013-09-28 01:36:00,
2013-09-27 21:41:00,55.4,53.4,30.26,NNW,340,0.0,1.0,93,0.00,,,0.01,WUHU216DAVISVP2,2013-09-28 01:41:00,
2013-09-27 21:46:00,55.0,53.0,30.26,NNW,340,0.0,1.0,93,0.00,,,0.01,WUHU216DAVISVP2,2013-09-28 01:46:00,
2013-09-27 21:51:00,54.7,52.7,30.26,NNW,340,0.0,0.0,93,0.00,,,0.01,WUHU216DAVISVP2,2013-09-28 01:51:00,
2013-09-27 21:56:00,54.4,52.7,30.26,NNW,340,0.0,0.0,94,0.00,,,0.01,WUHU216DAVISVP2,2013-09-28 01:56:00,
2013-09-27 22:01:00,54.4,53.0,30.26,NNW,340,0.0,0.0,95,0.00,,,0.01,WUHU216DAVISVP2,2013-09-28 02:01:00,
2013-09-27 22:06:00,54.4,53.0,30.26,NNW,340,0.0,0.0,95,0.00,,,0.01,WUHU216DAVISVP2,2013-09-28 02:06:00,
2013-09-27 22:11:00,54.5,53.3,30.26,NNW,340,0.0,0.0,96,0.00,,,0.01,WUHU216DAVISVP2,2013-09-28 02:11:00,
2013-09-27 22:16:00,54.3,52.9,30.26,NNW,340,0.0,0.0,95,0.00,,,0.01,WUHU216DAVISVP2,2013-09-28 02:16:00,
2013-09-27 22:21:00,53.9,52.5,30.26,NNW,340,0.0,0.0,95,0.00,,,0.01,WUHU216DAVISVP2,2013-09-28 02:21:00,
2013-09-27 22:26:00,53.7,52.3,30.27,NNW,340,0.0,0.0,95,0.00,,,0.01,WUHU216DAVISVP2,2013-09-28 02:26:00,
2013-09-27 22:31:00,53.7,52.6,30.27,NNW,340,0.0,0.0,96,0.00,,,0.01,WUHU216DAVISVP2,2013-09-28 02:31:00,
2013-09-27 22:36:00,53.7,52.6,30.27,NNW,340,0.0,0.0,96,0.00,,,0.01,WUHU216DAVISVP2,2013-09-28 02:36:00,
2013-09-27 22:41:00,53.7,52.6,30.27,NNW,340,0.0,0.0,96,0.00,,,0.01,WUHU216DAVISVP2,2013-09-28 02:41:00,
2013-09-27 22:47:00,53.5,52.4,30.27,NNW,340,0.0,0.0,96,0.00,,,0.01,WUHU216DAVISVP2,2013-09-28 02:47:00,
2013-09-27 22:52:00,53.4,52.3,30.27,NNW,340,0.0,0.0,96,0.00,,,0.01,WUHU216DAVISVP2,2013-09-28 02:52:00,
2013-09-27 22:57:00,53.2,52.1,30.27,NNW,340,0.0,0.0,96,0.00,,,0.01,WUHU216DAVISVP2,2013-09-28 02:57:00,
2013-09-27 23:02:00,52.8,51.7,30.27,NNW,340,0.0,0.0,96,0.00,,,0.01,WUHU216DAVISVP2,2013-09-28 03:02:00,
2013-09-27 23:07:00,52.7,51.6,30.27,NNW,340,0.0,0.0,96,0.00,,,0.01,WUHU216DAVISVP2,2013-09-28 03:07:00,
2013-09-27 23:12:00,52.8,52.0,30.27,NNW,340,0.0,0.0,97,0.00,,,0.01,WUHU216DAVISVP2,2013-09-28 03:12:00,
2013-09-27 23:17:00,52.6,51.8,30.27,NNW,340,0.0,0.0,97,0.00,,,0.01,WUHU216DAVISVP2,2013-09-28 03:17:00,
2013-09-27 23:22:00,52.5,51.4,30.27,NNW,340,0.0,0.0,96,0.00,,,0.01,WUHU216DAVISVP2,2013-09-28 03:22:00,
2013-09-27 23:27:00,52.4,51.5,30.27,NNW,340,0.0,0.0,97,0.00,,,0.01,WUHU216DAVISVP2,2013-09-28 03:27:00,
2013-09-27 23:32:00,52.3,51.4,30.27,NNW,340,0.0,0.0,97,0.00,,,0.01,WUHU216DAVISVP2,2013-09-28 03:32:00,
2013-09-27 23:37:00,52.2,51.3,30.27,NNW,340,0.0,0.0,97,0.00,,,0.01,WUHU216DAVISVP2,2013-09-28 03:37:00,
2013-09-27 23:42:00,52.2,51.3,30.27,NW,314,0.0,0.0,97,0.00,,,0.01,WUHU216DAVISVP2,2013-09-28 03:42:00,
2013-09-27 23:47:00,52.3,51.4,30.27,NW,314,0.0,0.0,97,0.00,,,0.01,WUHU216DAVISVP2,2013-09-28 03:47:00,
2013-09-27 23:52:00,52.2,51.3,30.27,NW,315,0.0,0.0,97,0.00,,,0.01,WUHU216DAVISVP2,2013-09-28 03:52:00,
2013-09-27 23:57:00,52.1,51.2,30.27,NW,314,0.0,0.0,97,0.00,,,0.01,WUHU216DAVISVP2,2013-09-28 03:57:00,